Home > Weather > Rasht > Past weeks

Flag for Iran Weather for the Past 2 Weeks in Rasht, Iran

Now
39 °F

Sprinkles. Broken clouds.


Feels Like: 33 °F
Forecast: 31 / 47 °F
Wind: 9 mph from West

Location: Rasht Airport

Current Time: Feb 9, 2016 at 3:24:48 PM

Latest Report: Feb 9, 2016 at 2:30 PM


Visibility: 2 mi

Pressure: 30.54 "Hg

Humidity: 93%

Dew point: 37 °F

Location of RashtLocation

Historic Weather in Rasht — Graph

°F

Rasht Temperature Yesterday

Maximum temperature yesterday: 43 °F (at 12:30 AM)
Minimum temperature yesterday: 36 °F (at 9:30 PM)
Average temperature yesterday: 40 °F

High & Low Weather Summary for the Past Weeks

 TemperatureHumidityPressure
High82 °F (Feb 6, 12:30 PM)100% (Jan 25, 1:30 PM)30.57 "Hg (Jan 25, 1:30 PM)
Low23 °F (Jan 29, 2:30 AM)9% (Feb 6, 12:30 PM)29.74 "Hg (Feb 6, 2:30 PM)
Average44 °F84%30.21 "Hg
* Reported Jan 25 1:30 PM — Feb 9 1:30 PM, Rasht, Weather by CustomWeather, © 2016

Note: Actual official high and low records may vary slightly from our data, if they occured in-between our weather recording intervals... More about our weather records

Advertising

Rasht Weather History for the Previous 24 Hours

 ConditionsComfort  
Time TempWeatherWind HumidityBarometerVisibility
1:30 PM
Tue, Feb 9
39 °FSprinkles. Broken clouds.9 mph93%30.54 "Hg2 mi
1:00 PM41 °FBroken clouds.7 mph87%30.54 "Hg4 mi
12:30 PM41 °FBroken clouds.7 mph87%30.54 "Hg5 mi
11:30 AM37 °FBroken clouds.5 mph93%30.57 "Hg4 mi
11:00 AM36 °FFog.7 mph100%30.57 "Hg3 mi
10:30 AM36 °FDrizzle. Mostly cloudy.9 mph100%30.57 "Hg2 mi
10:00 AM36 °FDrizzle. Mostly cloudy.7 mph93%30.57 "Hg2 mi
9:30 AM36 °FFog.7 mph93%30.57 "Hg2 mi
9:00 AM37 °FLight rain. Mostly cloudy.5 mph93%30.57 "Hg4 mi
8:00 AM36 °FLight rain. Mostly cloudy.5 mph93%30.54 "Hg4 mi
7:00 AM36 °FMostly cloudy.7 mph93%30.54 "Hg5 mi
6:30 AM36 °FMostly cloudy.7 mph93%30.54 "Hg5 mi
5:30 AM36 °FMostly cloudy.5 mph93%30.51 "Hg5 mi
4:30 AM36 °FMostly cloudy.9 mph93%30.54 "Hg5 mi
3:30 AM34 °FLight rain. Mostly cloudy.5 mph93%30.54 "Hg4 mi
2:30 AM32 °FLight snow. Mostly cloudy.5 mph100%30.54 "Hg2 mi
1:30 AM34 °FLight rain. Mostly cloudy.9 mph100%30.54 "Hg2 mi
11:30 PM
Mon, Feb 8
36 °FLight rain. Mostly cloudy.7 mph93%30.54 "Hg4 mi
9:30 PM36 °FLight rain. Mostly cloudy.5 mph100%30.51 "Hg4 mi
8:30 PM37 °FLight rain. Mostly cloudy.No wind93%30.51 "Hg4 mi
8:00 PM37 °FRain. Mostly cloudy.5 mph93%30.48 "Hg2 mi
7:30 PM37 °FRain. Mostly cloudy.5 mph93%30.48 "Hg2 mi
7:00 PM37 °FRain. Mostly cloudy.5 mph93%30.48 "Hg2 mi
6:30 PM37 °FRain. Mostly cloudy.5 mph93%30.48 "Hg2 mi
6:00 PM39 °FHeavy rain. Mostly cloudy.No wind93%30.45 "Hg2 mi
5:30 PM39 °FHeavy rain. Mostly cloudy.No wind93%30.45 "Hg2 mi
5:00 PM39 °FRain. Mostly cloudy.14 mph100%30.42 "Hg2 mi
4:30 PM39 °FRain. Mostly cloudy.14 mph100%30.42 "Hg2 mi
4:00 PM37 °FRain. Mostly cloudy.9 mph100%30.42 "Hg2 mi
3:30 PM37 °FRain. Mostly cloudy.9 mph100%30.42 "Hg2 mi
3:00 PM39 °FRain. Mostly cloudy.14 mph93%30.39 "Hg2 mi
Weather by CustomWeather, © 2016

See weather overviewHow to use our weather pages